Aralik, Turkey

4:05 PM +03 on May 29, 2017 (GMT +0300)
Aralik

Weather History for 17038 - August, 2013

Change the Weather History Date:

Friday, August 2, 2013

  Actual Average Record
Temperature  
Mean Temperature 74 °F -  
Max Temperature 80 °F 78 °F - ()
Min Temperature 69 °F 69 °F - ()
Cooling Degree Days 10    
Growing Degree Days 24 (Base 50)    
Moisture  
Dew Point 61 °F    
Average Humidity 62    
Maximum Humidity 73    
Minimum Humidity 50    
Precipitation  
Precipitation 0.00 in - - ()
Sea Level Pressure  
Sea Level Pressure 29.95 in    
Wind  
Wind Speed 5 mph ()    
Max Wind Speed 12 mph    
Max Gust Speed -    
Visibility 6.8 miles    
Events      
T = Trace of Precipitation, MM = Missing Value Source: Averaged Metar Reports

Daily Weather History Graph

Daily Weather History Graph

Search for Another Location

Airport or City:

Trip Planner

Search our weather history database for the weather conditions in past years. The results will help you decide how hot, cold, wet, or windy it might be!

Date:

Astronomy

Aug. 02, 2013 Rise Set
Actual Time 5:17 AM EEST 7:35 PM EEST
Civil Twilight 4:46 AM EEST 8:06 PM EEST
Nautical Twilight 4:08 AM EEST 8:44 PM EEST
Astronomical Twilight 3:26 AM EEST 9:26 PM EEST
Moon 1:21 AM EEST (8/2) 4:16 PM EEST (8/2)
Length of Visible Light 15h 19m
Length of Day
14h 18m
Waning Crescent, 18% of the Moon is Illuminated
Aug 2
Waning Crescent
Aug 7
New
Aug 14
First Quarter
Aug 21
Full
Aug 28
Last Quarter

Hourly Weather History & Observations

Time (EEST) Temp. Heat Index Dew Point Humidity Pressure Visibility Wind Dir Wind Speed Gust Speed Precip Events Conditions
12:20 AM 71.6 °F - 62.6 °F 73% 29.92 in 6.2 mi SSW 4.6 mph - N/A   Partly Cloudy
12:50 AM 71.6 °F - 62.6 °F 73% 29.92 in - SSW 3.5 mph - N/A   Clear
1:20 AM 71.6 °F - 60.8 °F 69% 29.92 in - SSW 4.6 mph - N/A   Clear
1:50 AM 69.8 °F - 60.8 °F 73% 29.92 in - Calm Calm - N/A   Clear
2:20 AM 69.8 °F - 60.8 °F 73% 29.92 in - SSW 5.8 mph - N/A   Clear
2:50 AM 69.8 °F - 60.8 °F 73% 29.92 in - SSW 6.9 mph - N/A   Clear
3:00 AM 70 °F - 61 °F 65% 29.93 in 12 mi SSW 6.9 mph - -  
3:20 AM 71.6 °F - 59.0 °F 64% 29.92 in - SSW 6.9 mph - N/A   Clear
3:50 AM 71.6 °F - 57.2 °F 60% 29.92 in - SSW 6.9 mph - N/A   Clear
4:20 AM 71.6 °F - 55.4 °F 57% 29.92 in - SW 11.5 mph - N/A   Clear
4:50 AM 71.6 °F - 55.4 °F 57% 29.92 in - SSW 6.9 mph - N/A   Clear
5:20 AM 69.8 °F - 53.6 °F 56% 29.92 in - SSW 8.1 mph - N/A   Clear
5:50 AM 71.6 °F - 55.4 °F 57% 29.95 in - SSW 4.6 mph - N/A   Clear
6:20 AM 73.4 °F - 59.0 °F 61% 29.95 in - South 4.6 mph - N/A   Clear
6:50 AM 73.4 °F - 55.4 °F 53% 29.95 in - SW 5.8 mph - N/A   Clear
7:20 AM 75.2 °F - 55.4 °F 50% 29.95 in - SW 8.1 mph - N/A   Clear
7:50 AM 75.2 °F - 55.4 °F 50% 29.95 in - WSW 6.9 mph - N/A   Clear
8:20 AM 77.0 °F - 57.2 °F 50% 29.95 in - NW 5.8 mph - N/A   Clear
8:50 AM 77.0 °F - 57.2 °F 50% 29.95 in - NNW 4.6 mph - N/A   Clear
9:20 AM 77.0 °F - 59.0 °F 54% 29.95 in - North 4.6 mph - N/A   Clear
9:50 AM 78.8 °F - 60.8 °F 54% 29.95 in - NNE 4.6 mph - N/A   Clear
10:20 AM 77.0 °F - 60.8 °F 57% 29.95 in - NNE 5.8 mph - N/A   Clear
10:50 AM 78.8 °F - 62.6 °F 57% 29.95 in 6.2 mi NNE 5.8 mph - N/A   Partly Cloudy
11:20 AM 78.8 °F - 62.6 °F 57% 29.95 in 6.2 mi NNE 5.8 mph - N/A   Partly Cloudy
11:50 AM 78.8 °F - 62.6 °F 57% 29.95 in 6.2 mi Variable 5.8 mph - N/A   Partly Cloudy
12:20 PM 78.8 °F - 64.4 °F 61% 29.95 in 6.2 mi NNE 5.8 mph - N/A   Partly Cloudy
12:50 PM 78.8 °F - 64.4 °F 61% 29.95 in 6.2 mi Variable 5.8 mph - N/A   Partly Cloudy
1:20 PM 78.8 °F - 64.4 °F 61% 29.95 in 6.2 mi NNE 5.8 mph - N/A   Partly Cloudy
1:50 PM 78.8 °F - 66.2 °F 65% 29.98 in 6.2 mi North 6.9 mph - N/A   Scattered Clouds
2:20 PM 80.6 °F 82.7 °F 66.2 °F 61% 29.95 in 6.2 mi Variable 5.8 mph - N/A   Scattered Clouds
2:50 PM 78.8 °F - 64.4 °F 61% 29.95 in 6.2 mi North 5.8 mph - N/A   Scattered Clouds
3:00 PM 80 °F - 65 °F 50% 29.96 in 12 mi North 5.8 mph - -   Partly Cloudy
3:20 PM 78.8 °F - 64.4 °F 61% 29.95 in 6.2 mi North 5.8 mph - N/A   Scattered Clouds
3:50 PM 78.8 °F - 64.4 °F 61% 29.95 in 6.2 mi Variable 5.8 mph - N/A   Scattered Clouds
4:20 PM 78.8 °F - 64.4 °F 61% 29.95 in 6.2 mi North 5.8 mph - N/A   Scattered Clouds
4:50 PM 78.8 °F - 64.4 °F 61% 29.95 in 6.2 mi North 4.6 mph - N/A   Scattered Clouds
5:20 PM 80.6 °F 81.8 °F 62.6 °F 54% 29.95 in 6.2 mi Variable 3.5 mph - N/A   Scattered Clouds
5:50 PM 77.0 °F - 62.6 °F 61% 29.95 in 6.2 mi NNE 5.8 mph - N/A   Scattered Clouds
6:20 PM 77.0 °F - 60.8 °F 57% 29.95 in 6.2 mi Variable 4.6 mph - N/A   Partly Cloudy
6:50 PM 77.0 °F - 62.6 °F 61% 29.95 in 6.2 mi NE 3.5 mph - N/A   Partly Cloudy
7:20 PM 75.2 °F - 64.4 °F 69% 29.98 in 6.2 mi ENE 3.5 mph - N/A   Partly Cloudy
7:50 PM 75.2 °F - 64.4 °F 69% 29.98 in 6.2 mi SE 4.6 mph - N/A   Partly Cloudy
8:20 PM 73.4 °F - 62.6 °F 69% 29.98 in 6.2 mi SSW 5.8 mph - N/A   Partly Cloudy
8:50 PM 73.4 °F - 64.4 °F 73% 29.98 in 6.2 mi SSW 6.9 mph - N/A   Partly Cloudy
9:00 PM 73 °F - 63 °F 64% 29.98 in 12 mi SSW 6.9 mph - -   Scattered Clouds
9:20 PM 73.4 °F - 64.4 °F 73% 29.98 in 6.2 mi SSW 4.6 mph - N/A   Partly Cloudy
9:50 PM 73.4 °F - 62.6 °F 69% 29.98 in 6.2 mi SSW 8.1 mph - N/A   Partly Cloudy
10:20 PM 73.4 °F - 60.8 °F 65% 29.95 in 6.2 mi SSW 9.2 mph - N/A   Partly Cloudy
10:50 PM 73.4 °F - 60.8 °F 65% 29.95 in 6.2 mi SSW 8.1 mph - N/A   Partly Cloudy
11:20 PM 73.4 °F - 60.8 °F 65% 29.95 in 6.2 mi SSW 6.9 mph - N/A   Partly Cloudy
11:50 PM 73.4 °F - 60.8 °F 65% 29.95 in 6.2 mi South 6.9 mph - N/A   Partly Cloudy